Location: Conflandey
(47.7287°N, 6.0456°E)
Time: 03:51:06
(UTC+00:00)

Cosmos 1328 - Pass Details

Date: 24 October 2021
Orbit: 529 x 551 km, 82.5° (Epoch: 28 November)

Event Time Altitude Azimuth Distance (km) Brightness Sun altitude
Rises 17:18:02 0° 353° (N) 2,736 7.4 -8.5°
Reaches altitude 10° 17:20:14 10° 356° (N) 1,839 6.5 -8.9°
Maximum altitude 17:24:16 66° 79° (ENE) 609 3.8 -9.6°
Drops below altitude 10° 17:28:16 10° 162° (SSE) 1,826 6.4 -10.2°
Sets 17:30:26 0° 165° (SSE) 2,714 7.3 -10.6°
